Regional Weather Roundup
Issued by NWS

Home | Current Version | Previous Version | Text Only | Print | Product List | Glossary On
Versions: 1 2 3 4 5 6 7 8 9 10 11 12 13 14 15 16 17 18 19 20 21 22 23 24 25 26 27 28 29 30 31 32 33 34 35 36 37 38 39 40 41 42 43 44 45 46 47 48 49 50
000
ASCA42 TJSJ 311810
RWRPR
PUERTO RICO/U.S. VIRGIN ISLANDS HOURLY WEATHER ROUNDUP
NATIONAL WEATHER SERVICE SAN JUAN PR
200 PM AST MON AUG 31 2015

PRZ001-004-311900-
PUERTO RICO

CITY           SKY/WX    TMP DP  RH WIND       PRES   REMARKS
SAN JUAN LMM   MOSUNNY   88  77  70 E17G25    30.02F HX 100
$$

PRZ006-007-311900-
U.S. VIRGIN ISLANDS

CITY           SKY/WX    TMP DP  RH WIND       PRES   REMARKS
CHARLOTTE AMA  MOSUNNY   90  77  66 SE15      30.01F HX 102
CHRISTIANSTED  MOSUNNY   90  75  62 SE14G25   30.03F HX 100
$$

HOURLY WEATHER ROUNDUP FOR THE NEWS MEDIA

CITY           SKY/WX    TMP DP  RH WIND       PRES   REMARKS
ORLANDO        CLOUDY    86  76  71 VRB6      30.05F HX  96
NEW YORK       PTSUNNY   88  67  49 SW12      30.01F HX  91
NEWARK         CLOUDY    92  65  40 W10       30.00F HX  94
CHICAGO        MOSUNNY   83  67  58 CALM      30.06F
HARTFORD       PTSUNNY   86  67  52 W12       29.93F
BOSTON         MOSUNNY   88  61  40 W20       29.90F
DALLAS         MOSUNNY   92  61  35 S12       30.02F HX  92
PHILADELPHIA   CLOUDY    89  65  44 W14       30.03F HX  91
LOS ANGELES    MOSUNNY   75  63  66 SE6       29.93R
WASHINGTON DC  CLOUDY    83  65  54 SW7       30.08F


USA.gov is the U.S. government's official web portal to all federal, state and local government web resources and services.